Pope AFB, NC

2:08 PM EST on February 22, 2017 (GMT -0500)
Pope Field Airport

Weather History for KPOB - July, 2013

Change the Weather History Date:

Thursday, July 4, 2013

  Actual Average Record
Temperature  
Mean Temperature 80 °F -  
Max Temperature 86 °F 91 °F 104 °F (1997)
Min Temperature 74 °F 71 °F 58 °F (2010)
Cooling Degree Days 15    
Growing Degree Days 30 (Base 50)    
Moisture  
Dew Point 73 °F    
Average Humidity 87    
Maximum Humidity 96    
Minimum Humidity 62    
Precipitation  
Precipitation 0.00 in - - ()
Sea Level Pressure  
Sea Level Pressure 30.26 in    
Wind  
Wind Speed 5 mph (South)    
Max Wind Speed 8 mph    
Max Gust Speed -    
Visibility 10 miles    
Events      
Averages and records for this station are not official NWS values.
T = Trace of Precipitation, MM = Missing Value Source: NWS Daily Summary

Daily Weather History Graph

Daily Weather History Graph

Search for Another Location

Airport or City:

Trip Planner

Search our weather history database for the weather conditions in past years. The results will help you decide how hot, cold, wet, or windy it might be!

Date:

Astronomy

Jul. 04, 2013 Rise Set
Actual Time 6:06 AM EDT 8:34 PM EDT
Civil Twilight 5:37 AM EDT 9:03 PM EDT
Nautical Twilight 5:00 AM EDT 9:40 PM EDT
Astronomical Twilight 4:20 AM EDT 10:20 PM EDT
Moon 3:19 AM EDT (7/4) 5:39 PM EDT (7/4)
Length of Visible Light 15h 26m
Length of Day
14h 27m
Waning Crescent, 11% of the Moon is Illuminated
Jul 4
Waning Crescent
Jul 8
New
Jul 15
First Quarter
Jul 22
Full
Jul 29
Last Quarter

Hourly Weather History & Observations

Time (EDT) Temp. Heat Index Dew Point Humidity Pressure Visibility Wind Dir Wind Speed Gust Speed Precip Events Conditions
12:58 AM 74.7 °F - 73.4 °F 96% 30.26 in 10.0 mi Variable 3.5 mph - N/A   Clear
1:02 AM 75.2 °F - 73.4 °F 94% 30.25 in 10.0 mi South 3.5 mph - N/A   Partly Cloudy
1:17 AM 75.2 °F - 73.4 °F 94% 30.25 in 10.0 mi SSE 3.5 mph - N/A   Mostly Cloudy
1:58 AM 75.9 °F - 74.3 °F 95% 30.26 in 10.0 mi South 6.9 mph - N/A   Overcast
2:03 AM 75.2 °F - 73.4 °F 94% 30.25 in 10.0 mi Variable 5.8 mph - N/A   Overcast
2:08 AM 75.2 °F - 73.4 °F 94% 30.25 in 10.0 mi South 6.9 mph - N/A   Overcast
2:48 AM 77.0 °F - 73.4 °F 89% 30.25 in 10.0 mi South 8.1 mph - N/A   Overcast
2:58 AM 76.3 °F - 74.1 °F 93% 30.25 in 10.0 mi South 4.6 mph - N/A   Overcast
3:23 AM 77.0 °F - 73.4 °F 89% 30.24 in 10.0 mi Variable 5.8 mph - N/A   Overcast
3:58 AM 76.5 °F - 73.9 °F 92% 30.25 in 10.0 mi South 4.6 mph - N/A   Overcast
4:18 AM 77.0 °F - 73.4 °F 89% 30.24 in 10.0 mi Variable 4.6 mph - N/A   Scattered Clouds
4:38 AM 77.0 °F - 73.4 °F 89% 30.24 in 10.0 mi South 3.5 mph - N/A   Mostly Cloudy
4:39 AM 77.0 °F - 73.4 °F 89% 30.24 in 10.0 mi SSW 2.3 mph - N/A   Mostly Cloudy
4:54 AM 77.0 °F - 73.4 °F 89% 30.24 in 9.0 mi South 5.8 mph - N/A   Overcast
4:58 AM 76.3 °F - 74.1 °F 93% 30.25 in 10.0 mi South 5.8 mph - N/A   Overcast
5:58 AM 76.1 °F - 73.9 °F 93% 30.26 in 10.0 mi South 3.5 mph - N/A   Overcast
6:28 AM 75.2 °F - 73.4 °F 94% 30.26 in 10.0 mi South 2.3 mph - N/A   Overcast
6:29 AM 75.2 °F - 73.4 °F 94% 30.26 in 10.0 mi Variable 3.5 mph - N/A   Overcast
6:34 AM 75.2 °F - 73.4 °F 94% 30.26 in 10.0 mi South 4.6 mph - N/A   Overcast
6:39 AM 75.2 °F - 73.4 °F 94% 30.26 in 10.0 mi Variable 4.6 mph - N/A   Overcast
6:49 AM 77.0 °F - 73.4 °F 89% 30.26 in 10.0 mi South 5.8 mph - N/A   Overcast
6:50 AM 77.0 °F - 73.4 °F 89% 30.26 in 10.0 mi South 4.6 mph - N/A   Overcast
6:58 AM 75.2 °F - 73.4 °F 94% 30.27 in 10.0 mi South 5.8 mph - N/A   Overcast
7:13 AM 77.0 °F - 73.4 °F 89% 30.27 in 10.0 mi South 4.6 mph - N/A   Overcast
7:33 AM 77.0 °F - 73.4 °F 89% 30.27 in 10.0 mi South 4.6 mph - N/A   Overcast
7:48 AM 77.0 °F - 73.4 °F 89% 30.27 in 10.0 mi Variable 4.6 mph - N/A   Overcast
7:58 AM 76.5 °F - 73.9 °F 92% 30.28 in 10.0 mi South 5.8 mph - N/A   Overcast
8:08 AM 77.0 °F - 73.4 °F 89% 30.28 in 10.0 mi South 5.8 mph - N/A   Overcast
8:28 AM 77.0 °F - 73.4 °F 89% 30.28 in 10.0 mi Variable 5.8 mph - N/A   Overcast
8:58 AM 78.3 °F - 73.9 °F 87% 30.29 in 10.0 mi SSW 6.9 mph - N/A   Mostly Cloudy
9:38 AM 80.6 °F 85.4 °F 73.4 °F 79% 30.28 in 10.0 mi South 5.8 mph - N/A   Mostly Cloudy
9:53 AM 80.6 °F 85.4 °F 73.4 °F 79% 30.28 in 10.0 mi Variable 3.5 mph - N/A   Scattered Clouds
9:58 AM 81.0 °F 86.0 °F 73.6 °F 78% 30.27 in 10.0 mi South 8.1 mph - N/A   Scattered Clouds
10:58 AM 82.2 °F 87.6 °F 72.9 °F 73% 30.27 in 10.0 mi South 5.8 mph - N/A   Clear
11:58 AM 84.4 °F 90.3 °F 72.1 °F 67% 30.27 in 10.0 mi SSE 6.9 mph - N/A   Partly Cloudy
12:58 PM 86.0 °F 91.8 °F 71.4 °F 62% 30.26 in 10.0 mi Variable 5.8 mph - N/A   Scattered Clouds
8:58 PM 81.5 °F 85.7 °F 71.4 °F 71% 30.24 in 5.0 mi Variable 6.9 mph - N/A   Haze
9:14 PM 80.6 °F 84.6 °F 71.6 °F 74% 30.24 in 7.0 mi South 8.1 mph - N/A   Clear
9:19 PM 80.6 °F 84.6 °F 71.6 °F 74% 30.24 in 10.0 mi South 5.8 mph - N/A   Clear